Hourly Weather La Fleche

Today, 27 November, Friday

Time Temperature Precipitation Wind Pressure Humidity
00:00 +10°C° 0 mm 2 mps 756 mmHg 82%
01:00 +10°C° 0 mm 2 mps 756 mmHg 82%
02:00 +10°C° 0 mm 2 mps 755 mmHg 82%
03:00 +10°C° 0 mm 2 mps 755 mmHg 82%
04:00 +9°C° 0 mm 2 mps 755 mmHg 85%
05:00 +9°C° 0 mm 2 mps 755 mmHg 87%
06:00 +8°C° 0 mm 2 mps 755 mmHg 89%
07:00 +9°C° 0 mm 2 mps 755 mmHg 89%
08:00 +9°C° 0 mm 2 mps 755 mmHg 88%
09:00 +9°C° 0 mm 2 mps 755 mmHg 87%
10:00 +12°C° 0 mm 2 mps 755 mmHg 83%
11:00 +13°C° 0 mm 2 mps 754 mmHg 78%
12:00 +13°C° 0 mm 3 mps 754 mmHg 74%
13:00 +14°C° 0 mm 2 mps 754 mmHg 74%
14:00 +14°C° 0 mm 2 mps 753 mmHg 75%
15:00 +14°C° 0 mm 2 mps 753 mmHg 76%
16:00 +13°C° 0 mm 2 mps 753 mmHg 80%
17:00 +12°C° 0 mm 2 mps 753 mmHg 85%
18:00 +10°C° 0 mm 3 mps 753 mmHg 89%
19:00 +10°C° 0 mm 3 mps 753 mmHg 89%
20:00 +9°C° 0 mm 3 mps 753 mmHg 90%
21:00 +9°C° 0 mm 3 mps 753 mmHg 91%
22:00 +9°C° 0 mm 3 mps 753 mmHg 91%
23:00 +9°C° 0 mm 3 mps 753 mmHg 91%

Tomorrow, 28 November, Saturday

Time Temperature Precipitation Wind Pressure Humidity
00:00 +8°C° 0 mm 3 mps 753 mmHg 91%
01:00 +8°C° 0 mm 3 mps 753 mmHg 91%
02:00 +8°C° 0 mm 3 mps 753 mmHg 92%
03:00 +8°C° 0 mm 2 mps 753 mmHg 92%
04:00 +8°C° 0 mm 3 mps 753 mmHg 92%
05:00 +8°C° 0 mm 3 mps 753 mmHg 92%
06:00 +8°C° 0 mm 3 mps 753 mmHg 92%
07:00 +8°C° 0 mm 3 mps 753 mmHg 89%
08:00 +8°C° 0 mm 3 mps 753 mmHg 86%
09:00 +9°C° 0 mm 3 mps 753 mmHg 84%
10:00 +10°C° 0 mm 4 mps 753 mmHg 78%
11:00 +12°C° 0 mm 4 mps 753 mmHg 72%
12:00 +13°C° 0 mm 4 mps 753 mmHg 67%
13:00 +13°C° 0 mm 4 mps 753 mmHg 67%
14:00 +13°C° 0 mm 4 mps 753 mmHg 68%
15:00 +13°C° 0 mm 4 mps 753 mmHg 69%
16:00 +11°C° 0 mm 4 mps 753 mmHg 71%
17:00 +10°C° 0 mm 4 mps 754 mmHg 74%
18:00 +8°C° 0 mm 4 mps 754 mmHg 76%
19:00 +7°C° 0 mm 4 mps 754 mmHg 76%
20:00 +8°C° 0 mm 3 mps 755 mmHg 76%
21:00 +7°C° 0 mm 3 mps 755 mmHg 77%
22:00 +7°C° 0 mm 3 mps 755 mmHg 78%
23:00 +5°C° 0 mm 3 mps 756 mmHg 80%

Day after tomorrow, 29 November, Sunday

Time Temperature Precipitation Wind Pressure Humidity
00:00 +5°C° 0 mm 3 mps 756 mmHg 82%
01:00 +4°C° 0 mm 3 mps 756 mmHg 80%
02:00 +4°C° 0 mm 3 mps 756 mmHg 79%
03:00 +4°C° 0 mm 3 mps 756 mmHg 78%
04:00 +3°C° 0 mm 3 mps 756 mmHg 79%
05:00 +3°C° 0 mm 3 mps 756 mmHg 79%
06:00 +3°C° 0 mm 3 mps 757 mmHg 80%
07:00 +3°C° 0 mm 3 mps 757 mmHg 78%
08:00 +3°C° 0 mm 3 mps 757 mmHg 76%
09:00 +4°C° 0 mm 4 mps 758 mmHg 75%
10:00 +5°C° 0 mm 4 mps 758 mmHg 71%
11:00 +7°C° 0 mm 4 mps 758 mmHg 68%
12:00 +8°C° 0 mm 4 mps 758 mmHg 64%
13:00 +8°C° 0 mm 4 mps 758 mmHg 64%
14:00 +8°C° 0 mm 4 mps 758 mmHg 65%
15:00 +9°C° 0 mm 3 mps 758 mmHg 65%
16:00 +8°C° 0 mm 3 mps 758 mmHg 69%
17:00 +5°C° 0 mm 3 mps 759 mmHg 73%
18:00 +4°C° 0 mm 3 mps 759 mmHg 77%
19:00 +3°C° 0 mm 3 mps 759 mmHg 76%
20:00 +3°C° 0 mm 3 mps 760 mmHg 76%
21:00 +3°C° 0 mm 3 mps 760 mmHg 76%
22:00 +2°C° 0 mm 3 mps 761 mmHg 77%
23:00 +2°C° 0 mm 3 mps 761 mmHg 78%

30 November, Monday

Time Temperature Precipitation Wind Pressure Humidity
00:00 +1°C° 0 mm 3 mps 761 mmHg 79%
01:00 +1°C° 0 mm 3 mps 761 mmHg 79%
02:00 +1°C° 0 mm 3 mps 761 mmHg 78%
03:00 0°C° 0 mm 3 mps 761 mmHg 78%
04:00 0°C° 0 mm 3 mps 762 mmHg 78%
05:00 +1°C° 0 mm 2 mps 762 mmHg 78%
06:00 -1°C° 0 mm 2 mps 762 mmHg 78%
07:00 0°C° 0 mm 3 mps 763 mmHg 76%
08:00 0°C° 0 mm 3 mps 763 mmHg 74%
09:00 +1°C° 0 mm 3 mps 763 mmHg 72%
10:00 +2°C° 0 mm 3 mps 764 mmHg 67%
11:00 +4°C° 0 mm 3 mps 764 mmHg 62%
12:00 +5°C° 0 mm 3 mps 764 mmHg 56%
13:00 +5°C° 0 mm 3 mps 764 mmHg 57%
14:00 +5°C° 0 mm 3 mps 764 mmHg 57%
15:00 +7°C° 0 mm 2 mps 764 mmHg 58%
16:00 +5°C° 0 mm 2 mps 764 mmHg 62%
17:00 +4°C° 0 mm 2 mps 764 mmHg 66%
18:00 +3°C° 0 mm 2 mps 764 mmHg 70%
19:00 +2°C° 0 mm 2 mps 765 mmHg 70%
20:00 +2°C° 0 mm 2 mps 765 mmHg 70%
21:00 +2°C° 0 mm 2 mps 765 mmHg 69%
22:00 +2°C° 0 mm 2 mps 765 mmHg 69%
23:00 +1°C° 0 mm 2 mps 765 mmHg 69%

1 December, Tuesday

Time Temperature Precipitation Wind Pressure Humidity
00:00 +1°C° 0 mm 2 mps 765 mmHg 68%
01:00 +1°C° 0 mm 2 mps 765 mmHg 68%
02:00 +1°C° 0 mm 2 mps 765 mmHg 67%
03:00 +1°C° 0 mm 2 mps 765 mmHg 67%
04:00 +1°C° 0 mm 2 mps 765 mmHg 66%
05:00 +1°C° 0 mm 2 mps 765 mmHg 66%
06:00 +1°C° 0 mm 2 mps 765 mmHg 65%
07:00 +2°C° 0 mm 2 mps 765 mmHg 64%
08:00 +3°C° 0 mm 1 mps 765 mmHg 62%
09:00 +4°C° 0 mm 1 mps 765 mmHg 61%
10:00 +4°C° 0 mm 2 mps 765 mmHg 57%
11:00 +6°C° 0 mm 2 mps 765 mmHg 53%
12:00 +7°C° 0 mm 2 mps 765 mmHg 50%
13:00 +7°C° 0 mm 2 mps 765 mmHg 53%
14:00 +8°C° 0 mm 1 mps 764 mmHg 57%
15:00 +8°C° 0 mm 1 mps 764 mmHg 60%
16:00 +7°C° 0 mm 1 mps 764 mmHg 64%
17:00 +6°C° 0 mm 1 mps 764 mmHg 68%
18:00 +4°C° 0 mm 2 mps 764 mmHg 71%
19:00 +4°C° 0 mm 2 mps 764 mmHg 73%
20:00 +4°C° 0 mm 2 mps 764 mmHg 75%
21:00 +4°C° 0 mm 2 mps 764 mmHg 77%
22:00 +4°C° 0 mm 2 mps 764 mmHg 78%
23:00 +3°C° 0 mm 2 mps 764 mmHg 80%

2 December, Wednesday

Time Temperature Precipitation Wind Pressure Humidity
00:00 +4°C° 0 mm 1 mps 763 mmHg 81%
01:00 +3°C° 0 mm 2 mps 763 mmHg 81%
02:00 +3°C° 0 mm 2 mps 763 mmHg 81%
03:00 +3°C° 0 mm 2 mps 762 mmHg 81%
04:00 +3°C° 0 mm 2 mps 762 mmHg 82%
05:00 +3°C° 0 mm 2 mps 761 mmHg 83%
06:00 +3°C° 0 mm 2 mps 761 mmHg 83%
07:00 +3°C° 0 mm 2 mps 761 mmHg 82%
08:00 +4°C° 0 mm 2 mps 761 mmHg 81%
09:00 +4°C° 0 mm 2 mps 761 mmHg 80%
10:00 +5°C° 0 mm 2 mps 760 mmHg 77%
11:00 +6°C° 0 mm 2 mps 760 mmHg 74%
12:00 +7°C° 0 mm 2 mps 759 mmHg 71%
13:00 +7°C° 0 mm 2 mps 759 mmHg 72%
14:00 +7°C° 0 mm 2 mps 758 mmHg 74%
15:00 +7°C° 0 mm 2 mps 757 mmHg 75%
16:00 +6°C° 0 mm 2 mps 757 mmHg 79%
17:00 +4°C° 0 mm 3 mps 756 mmHg 83%
18:00 +3°C° 0 mm 3 mps 756 mmHg 87%
19:00 +3°C° 0 mm 3 mps 756 mmHg 89%
20:00 +3°C° 0 mm 3 mps 756 mmHg 90%
21:00 +3°C° 0 mm 3 mps 755 mmHg 92%
22:00 +4°C° 0 mm 2 mps 755 mmHg 93%
23:00 +3°C° 0 mm 2 mps 754 mmHg 94%
Show more

We Need Your Consent

Meteoprog and our Service Providers may store and access personal data such as cookies, device identifiers or other similar technologies on your device and process such data to personalise content and ads, as well as provide social media features and to analyse the traffic.

  • Store and/or access information on your device

    Cookies, device identifiers or other information can be stored or accessed on your device for the purposes indicated above.

  • Personalised ads and content, ad and content measurement, audience insights, and products development

    Ads and content can be personalised based on a profile. More data can be added to better personalise ads and content. Ad and content performance can be measured. Insights about the audience who saw the ads and content can be derived. Such data can be used to develop or improve user’s experience, systems and software.

By clicking ‘I Agree’ you will allow the use of indicated cookies, device identifiers, web beacons or other similar technologies. Your settings can be changed in the browser on your device.

For certain purposes, legitimate interests may be relied on, rather than consent. You can read more about this in our Privacy and Cookie Policy.